"datetime","# probes","# resolvers","can_ipv6","can_ipv6_prbs","can_tcp","can_tcp_prbs","can_tcp6","can_tcp6_prbs","does_ecs","does_ecs_prbs","does_flagday","does_flagday_prbs","does_rov4","does_rov4_prbs","does_rov6","does_rov6_prbs","does_qnamemin","doesnt_qnamemin","does_qnamemin_prbs","doesnt_qnamemin_prbs","does_nxdomain","doesnt_nxdomain","does_nxdomain_prbs","doesnt_nxdomain_prbs","has_ta_19036","hasnt_ta_19036","has_ta_19036_prbs","hasnt_ta_19036_prbs","has_ta_20326","hasnt_ta_20326","has_ta_20326_prbs","hasnt_ta_20326_prbs","can_rsamd5","cannot_rsamd5","broken_rsamd5","can_rsamd5_prbs","cannot_rsamd5_prbs","broken_rsamd5_prbs","can_dsa","cannot_dsa","broken_dsa","can_dsa_prbs","cannot_dsa_prbs","broken_dsa_prbs","can_rsasha1","cannot_rsasha1","broken_rsasha1","can_rsasha1_prbs","cannot_rsasha1_prbs","broken_rsasha1_prbs","can_dsansec3","cannot_dsansec3","broken_dsansec3","can_dsansec3_prbs","cannot_dsansec3_prbs","broken_dsansec3_prbs","can_rsansec3","cannot_rsansec3","broken_rsansec3","can_rsansec3_prbs","cannot_rsansec3_prbs","broken_rsansec3_prbs","can_rsasha256","cannot_rsasha256","broken_rsasha256","can_rsasha256_prbs","cannot_rsasha256_prbs","broken_rsasha256_prbs","can_rsasha512","cannot_rsasha512","broken_rsasha512","can_rsasha512_prbs","cannot_rsasha512_prbs","broken_rsasha512_prbs","can_eccgost","cannot_eccgost","broken_eccgost","can_eccgost_prbs","cannot_eccgost_prbs","broken_eccgost_prbs","can_ecdsa256","cannot_ecdsa256","broken_ecdsa256","can_ecdsa256_prbs","cannot_ecdsa256_prbs","broken_ecdsa256_prbs","can_ecdsa384","cannot_ecdsa384","broken_ecdsa384","can_ecdsa384_prbs","cannot_ecdsa384_prbs","broken_ecdsa384_prbs","can_ed25519","cannot_ed25519","broken_ed25519","can_ed25519_prbs","cannot_ed25519_prbs","broken_ed25519_prbs","can_ed448","cannot_ed448","broken_ed448","can_ed448_prbs","cannot_ed448_prbs","broken_ed448_prbs","can_gost","cannot_gost","broken_gost","can_gost_prbs","cannot_gost_prbs","broken_gost_prbs","can_sha384","cannot_sha384","broken_sha384","can_sha384_prbs","cannot_sha384_prbs","broken_sha384_prbs","is_internal","is_forwarding","is_external","is_internal_prbs","is_forwarding_prbs","is_external_prbs"
2017-06-20T23:59:59Z,316,580,550,302,580,316,543,299,131,90,0,0,0,0,0,0,0,580,0,316,5,572,2,311,0,0,0,0,0,0,0,0,354,112,74,192,77,56,372,176,0,202,118,1,446,95,0,249,67,1,371,177,0,202,119,1,446,95,0,248,67,1,447,95,0,249,67,1,447,94,0,249,66,1,19,557,0,16,304,1,443,98,0,246,68,1,442,99,1,246,69,2,0,580,0,0,316,1,0,580,0,0,316,1,89,484,0,66,269,1,445,96,0,247,68,1,407,72,99,227,64,62
2017-06-21T23:59:59Z,316,585,556,302,585,316,549,299,137,94,0,0,0,0,0,0,0,585,0,316,5,577,2,311,0,0,0,0,0,0,0,0,357,111,78,193,77,59,378,176,0,204,119,1,453,93,0,249,66,1,378,176,0,203,119,1,454,94,0,250,67,1,452,95,0,248,68,1,453,94,0,249,67,1,19,562,0,16,304,1,449,98,0,245,69,1,451,97,0,247,68,1,0,585,0,0,316,1,0,585,0,0,316,1,88,490,0,65,269,1,449,97,0,245,68,1,412,72,99,227,64,61
2017-06-22T23:59:59Z,316,585,556,302,585,316,547,298,132,88,0,0,0,0,0,0,0,585,0,316,5,577,2,311,0,0,0,0,0,0,0,0,358,108,80,194,75,59,378,176,0,206,117,1,453,93,0,250,65,1,377,175,0,204,118,1,456,90,0,253,63,1,453,92,0,250,64,1,455,92,0,250,64,1,21,558,0,17,304,1,447,97,1,246,67,2,450,97,1,247,67,2,0,585,0,0,316,1,0,585,0,0,316,1,93,484,0,66,268,1,452,94,0,248,66,1,411,73,99,229,62,60
2017-06-23T23:59:59Z,317,588,558,303,587,317,556,302,137,92,0,0,0,0,0,0,0,588,0,317,5,581,2,313,0,0,0,0,0,0,0,0,359,110,80,195,74,58,376,181,0,203,119,1,455,94,0,250,65,1,376,181,0,202,120,1,456,95,0,250,66,1,456,94,0,250,65,1,455,95,0,250,66,1,19,565,0,16,305,1,453,97,0,248,66,1,452,99,0,248,68,1,0,588,0,0,317,1,0,588,0,0,317,1,93,488,0,67,269,1,452,97,0,247,68,1,410,76,100,227,65,61
2017-06-24T23:59:59Z,318,589,560,305,588,318,553,303,142,97,0,0,0,0,0,0,0,589,0,318,5,581,2,313,0,0,0,0,0,0,0,0,359,110,81,196,75,60,377,182,0,205,120,1,460,91,0,255,63,1,378,181,0,205,119,1,458,94,0,252,66,1,458,93,0,252,65,1,456,95,0,251,67,1,19,566,0,16,306,1,453,98,0,249,68,1,454,98,0,250,68,1,0,589,0,0,318,1,0,589,0,0,318,1,93,489,0,67,270,1,456,94,1,250,66,2,410,77,100,228,66,61
2017-06-25T23:59:59Z,319,594,565,306,594,319,561,303,137,91,0,0,0,0,0,0,2,592,1,318,6,584,3,313,0,0,0,0,0,0,0,0,359,113,82,197,76,61,377,187,0,206,122,2,459,96,0,254,66,2,379,185,0,206,120,2,459,96,0,254,66,2,459,95,0,254,65,2,458,96,0,254,66,2,19,571,0,16,307,2,455,99,0,251,67,2,453,102,0,250,70,2,0,594,0,0,319,2,0,594,0,0,319,2,93,492,0,67,270,2,456,98,0,251,68,2,415,77,100,229,65,61
2017-06-26T23:59:59Z,319,593,564,306,593,319,543,303,140,95,0,0,0,0,0,0,0,593,0,319,6,583,3,312,0,0,0,0,0,0,0,0,361,112,82,197,76,60,377,186,0,205,123,1,460,96,0,253,67,1,379,184,0,206,121,1,462,94,0,255,65,1,459,96,0,254,67,1,461,94,0,255,65,1,19,570,0,16,307,1,457,98,0,252,67,1,459,98,0,253,67,1,0,593,0,0,319,1,0,593,0,0,319,1,94,490,0,68,269,1,456,99,0,252,68,1,412,78,101,228,67,62
2017-06-27T23:59:59Z,319,590,561,306,590,319,542,301,138,93,0,0,0,0,0,0,0,590,0,319,6,580,3,312,0,0,0,0,0,0,0,0,360,112,80,197,77,58,377,183,0,205,121,1,461,93,0,254,66,1,378,182,0,205,120,1,457,96,0,251,67,1,456,96,0,252,67,1,457,95,0,252,66,1,18,568,0,15,308,1,453,99,0,249,68,1,455,99,0,250,68,1,0,590,0,0,319,1,0,590,0,0,319,1,95,486,0,68,269,1,455,97,0,251,66,1,413,77,98,229,66,61
2017-06-28T23:59:59Z,319,588,558,305,588,319,546,303,139,94,0,0,0,0,0,0,0,588,0,319,6,578,3,312,0,0,0,0,0,0,0,0,362,108,80,199,75,59,379,179,0,207,120,2,459,93,0,254,65,2,380,178,0,207,119,1,459,92,0,254,66,2,458,92,0,254,66,2,459,91,0,254,65,2,21,563,0,17,307,2,452,98,0,250,68,2,454,98,0,250,68,2,0,588,0,1,319,1,0,588,0,0,319,2,92,487,0,66,270,2,451,99,0,249,69,2,410,77,99,228,66,61
2017-06-29T23:59:59Z,318,589,560,304,588,317,545,300,143,97,0,0,0,0,0,0,2,587,1,317,6,579,3,311,0,0,0,0,0,0,0,0,358,112,81,196,76,59,378,181,0,207,118,1,460,93,0,255,64,1,378,181,0,206,118,1,458,94,0,254,65,1,458,93,0,254,64,1,457,94,0,254,65,1,18,567,0,15,307,1,451,100,0,249,69,1,454,99,0,251,68,1,0,589,0,0,318,1,0,589,0,0,318,1,94,486,0,68,268,1,453,98,0,250,67,1,409,78,100,227,67,60
2017-06-30T23:59:59Z,320,588,559,306,588,320,549,304,139,93,0,0,0,0,0,0,2,586,1,319,6,578,3,313,0,0,0,0,0,0,0,0,360,110,80,198,75,58,378,180,0,207,119,1,459,93,0,254,65,1,377,181,0,206,120,1,458,94,0,254,66,1,455,95,0,252,67,1,456,94,0,252,66,1,19,566,0,16,309,1,452,98,0,249,68,1,452,100,0,249,70,1,0,588,0,0,320,1,0,587,1,0,320,2,91,488,0,65,272,1,455,95,0,251,67,1,413,77,96,229,66,59
2017-07-01T23:59:59Z,320,590,560,306,590,320,540,304,135,91,0,0,0,0,0,0,0,590,0,320,6,580,3,313,0,0,0,0,0,0,0,0,365,110,77,202,75,56,383,177,0,210,118,1,461,93,0,256,66,1,381,179,0,210,119,1,459,94,1,254,67,2,457,95,0,254,66,1,456,96,0,253,67,1,22,565,0,18,308,1,452,100,0,250,69,1,455,99,0,252,68,1,0,590,0,0,320,1,0,590,0,0,320,1,93,488,0,67,272,1,455,97,0,251,68,1,414,74,100,231,64,61
2017-07-02T23:59:59Z,318,590,560,305,590,318,537,299,138,92,0,0,0,0,0,0,0,590,0,318,6,580,3,311,0,0,0,0,0,0,0,0,360,114,78,198,76,57,381,179,0,208,116,1,460,94,0,255,65,1,378,182,0,206,118,1,457,97,0,253,66,1,455,97,0,252,66,1,455,97,0,252,66,1,19,568,0,16,307,1,450,102,0,248,69,1,452,102,0,249,69,1,0,590,0,0,318,1,0,590,0,0,318,1,90,491,0,65,271,1,452,100,0,249,67,1,415,74,99,230,63,60
2017-07-03T23:59:59Z,318,587,558,304,587,318,535,300,143,95,0,0,0,0,0,0,0,587,0,318,5,578,3,312,0,0,0,0,0,0,0,0,361,112,76,199,74,58,376,181,0,208,118,2,455,96,0,254,66,2,377,180,0,207,119,2,457,94,0,254,66,2,456,93,0,254,65,2,454,95,0,253,65,2,22,562,0,18,306,2,450,99,0,250,67,2,450,100,1,250,68,3,0,587,0,0,318,2,0,587,0,0,318,2,93,485,0,67,269,2,449,100,0,250,68,2,408,78,99,228,66,60
2017-07-04T23:59:59Z,322,599,570,308,599,322,541,303,145,96,0,0,0,0,0,0,0,599,0,322,6,589,4,315,0,0,0,0,0,0,0,0,365,114,82,201,77,60,381,187,1,209,122,3,468,95,0,258,67,2,387,182,0,212,118,2,468,95,0,257,67,2,467,94,0,257,66,2,467,94,0,257,66,2,23,573,0,19,310,2,463,99,0,254,69,2,465,98,0,255,68,2,0,599,0,0,322,2,0,598,1,0,322,3,95,495,0,67,274,2,463,98,0,255,68,2,417,76,104,233,65,63
2017-07-05T23:59:59Z,323,603,574,309,603,323,550,303,144,95,0,0,0,0,0,0,2,601,1,322,6,593,4,316,0,0,0,0,0,0,0,0,367,115,83,201,76,61,386,187,0,211,119,2,470,97,0,260,65,2,382,191,0,209,123,2,470,97,0,259,65,2,468,97,0,258,65,2,467,98,0,258,66,2,20,580,0,17,311,2,463,103,0,253,69,2,463,104,0,254,70,2,0,603,0,0,323,2,0,603,0,0,323,2,97,497,0,69,274,2,464,101,0,255,69,2,418,78,105,232,65,64
2017-07-06T23:59:59Z,322,599,571,308,599,322,521,295,144,96,0,0,0,0,0,0,2,597,1,321,6,589,4,315,0,0,0,0,0,0,0,0,368,110,84,200,75,62,386,184,0,210,121,2,471,93,0,259,65,2,388,182,0,211,121,2,472,92,0,259,66,2,469,93,0,257,67,2,468,94,0,256,66,2,20,576,0,16,312,2,464,100,0,253,70,2,465,99,0,253,69,2,0,599,0,0,322,2,0,599,0,0,322,2,99,491,0,70,270,2,465,97,0,254,67,2,419,78,100,231,66,61
2017-07-07T23:59:59Z,322,603,574,308,603,322,570,304,146,97,0,0,0,0,0,0,2,601,1,321,6,593,4,315,0,0,0,0,0,0,0,0,371,110,86,200,75,63,391,185,0,210,122,2,474,94,1,259,64,3,390,184,1,210,120,3,474,95,0,258,67,2,470,96,1,256,66,3,472,95,0,258,66,2,20,580,0,16,312,2,468,101,0,254,69,2,467,101,1,252,69,3,0,603,0,0,322,2,0,603,0,0,322,2,99,495,0,70,272,2,468,99,0,254,67,2,420,80,101,230,68,62
2017-07-08T23:59:59Z,323,603,574,309,603,323,570,305,142,95,0,0,0,0,0,0,2,601,1,322,6,592,4,315,0,0,0,0,0,0,0,0,369,114,83,200,76,62,393,183,0,214,120,2,474,94,0,260,63,2,390,184,0,210,120,2,472,96,0,258,65,2,468,97,1,256,66,3,469,97,0,257,66,2,19,581,0,16,312,2,466,102,0,254,69,2,466,102,0,254,69,2,0,603,0,0,323,2,0,603,0,0,323,2,94,500,0,68,273,2,466,99,1,254,66,3,423,79,99,231,66,61
2017-07-09T23:59:59Z,323,602,573,309,602,323,568,306,135,90,0,0,0,0,0,0,2,600,1,322,6,592,4,316,0,0,0,0,0,0,0,0,370,110,85,200,74,64,393,182,0,212,121,2,474,93,0,259,64,2,394,179,0,212,117,2,474,93,0,260,64,2,472,93,0,259,64,2,473,92,0,259,63,2,19,580,0,16,312,2,469,98,0,255,67,2,470,97,0,256,66,2,0,602,0,0,323,2,0,602,0,0,323,2,94,500,0,68,274,2,468,97,0,255,66,2,429,73,98,236,62,61
2017-07-10T23:59:59Z,328,616,586,314,615,328,582,311,140,95,0,0,0,0,0,0,2,614,1,327,6,605,4,320,0,0,0,0,0,0,0,0,380,115,84,205,78,63,402,186,1,216,124,3,485,96,0,264,66,2,403,184,0,217,122,2,486,96,0,266,67,2,483,97,0,264,67,2,485,95,0,265,65,2,21,592,0,17,317,2,480,101,0,261,69,2,480,101,0,260,69,2,0,616,0,0,328,2,0,616,0,0,328,2,99,509,0,72,276,2,478,100,0,261,68,2,432,82,100,236,69,62
2017-07-11T23:59:59Z,328,611,581,313,610,327,578,310,144,97,0,0,0,0,0,0,2,609,1,327,6,601,4,321,0,0,0,0,0,0,0,0,377,114,84,204,77,64,398,187,0,215,124,2,479,97,2,264,65,3,393,189,1,213,124,3,479,98,0,265,66,2,477,97,1,263,65,3,477,98,0,264,66,2,23,585,0,19,316,2,473,103,0,260,69,2,472,104,0,259,70,2,0,611,0,0,328,2,0,611,0,0,328,2,99,504,0,72,275,2,472,101,0,259,67,2,428,80,101,236,67,62
2017-07-12T23:59:59Z,329,608,580,315,606,328,579,314,145,99,0,0,0,0,0,0,2,606,1,328,5,599,3,323,0,0,0,0,0,0,0,0,373,113,86,203,76,65,395,188,0,215,124,2,479,96,0,266,66,2,389,191,0,212,127,2,479,95,0,266,65,2,477,95,0,265,65,2,477,95,0,265,65,2,20,585,0,17,317,2,473,100,0,261,68,2,472,101,0,260,69,2,0,608,0,0,329,2,0,608,0,0,329,2,99,499,2,73,275,3,472,100,0,261,68,2,424,82,100,234,68,61
2017-07-13T23:59:59Z,330,608,578,315,608,330,575,312,147,100,0,0,0,0,0,0,2,606,1,329,6,597,4,323,0,0,0,0,0,0,0,0,374,113,85,205,77,65,393,190,0,215,127,2,477,98,0,267,67,2,389,191,0,214,126,2,475,99,0,265,68,2,472,100,0,264,69,2,475,97,0,266,66,2,20,585,0,17,318,2,470,103,0,262,70,2,470,103,0,262,70,2,0,608,0,0,330,2,0,608,0,0,330,2,99,501,0,73,277,2,470,102,0,261,69,2,422,82,102,234,69,62
2017-07-14T23:59:59Z,328,605,574,313,605,328,571,310,147,100,0,0,0,0,0,0,2,603,1,327,6,593,4,319,0,0,0,0,0,0,0,0,369,116,86,200,77,66,389,192,0,211,127,2,474,99,1,263,67,3,390,189,0,213,124,2,474,98,0,264,66,2,474,97,0,264,65,2,473,98,0,264,66,2,19,582,1,16,317,3,470,101,0,260,69,2,470,101,0,259,69,2,0,605,0,0,328,2,0,605,0,0,328,2,98,499,0,72,275,2,467,103,0,257,69,2,425,80,98,236,67,61
2017-07-15T23:59:59Z,326,607,575,311,607,326,571,308,144,97,0,0,0,0,0,0,0,607,0,326,6,597,3,319,0,0,0,0,0,0,0,0,367,120,86,200,80,64,387,196,0,209,128,1,473,103,0,261,70,1,386,194,1,209,127,2,474,100,0,262,67,1,473,100,0,262,67,1,472,101,0,262,68,1,22,582,0,19,314,1,468,105,0,258,70,1,467,106,0,257,71,1,0,607,0,0,326,1,0,607,0,0,326,1,101,498,0,74,273,1,467,105,0,256,70,1,420,82,103,231,68,64
2017-07-16T23:59:59Z,327,606,573,310,606,327,569,307,149,101,0,0,0,0,0,0,1,605,1,326,6,595,3,319,0,0,0,0,0,0,0,0,364,121,87,200,81,65,387,195,0,211,129,1,476,98,0,264,68,1,387,193,0,214,127,1,474,99,0,262,68,1,474,98,0,263,67,1,472,100,0,262,69,1,21,582,0,18,315,1,470,102,0,259,69,1,470,102,0,259,69,1,0,606,0,0,327,1,0,606,0,0,327,1,100,498,0,73,275,1,467,104,0,257,71,1,418,84,102,232,68,62
2017-07-17T23:59:59Z,325,601,567,307,601,325,564,304,144,97,0,0,0,0,0,0,0,601,0,325,6,591,3,318,0,0,0,0,0,0,0,0,360,123,84,196,82,63,387,190,0,212,125,1,473,97,0,263,67,1,384,191,0,212,126,1,468,100,0,260,68,1,467,100,0,260,68,1,468,99,0,261,67,1,19,579,0,16,314,1,463,104,0,255,70,1,462,105,0,254,71,1,0,601,0,0,325,1,0,601,0,0,325,1,99,494,0,71,273,1,461,105,0,254,71,1,417,81,101,232,67,62
2017-07-18T23:59:59Z,325,597,564,307,597,325,562,306,147,100,0,0,0,0,0,0,0,597,0,325,6,587,3,318,0,0,0,0,0,0,0,0,361,119,83,198,80,63,384,189,0,211,124,1,469,97,0,262,66,1,381,190,0,210,125,1,466,98,0,259,67,1,467,96,0,261,67,1,467,96,0,260,67,1,20,574,0,17,313,1,464,99,0,257,68,1,463,100,0,256,69,1,0,597,0,0,325,1,0,597,0,0,325,1,99,490,0,72,273,1,462,100,0,255,69,1,414,82,99,230,68,60
2017-07-19T23:59:59Z,326,599,566,308,599,326,564,307,144,100,0,0,0,0,0,0,2,597,1,325,6,588,3,318,0,0,0,0,0,0,0,0,358,122,85,197,83,63,383,192,0,211,127,1,469,99,0,261,67,1,382,191,0,212,126,1,466,100,0,260,68,1,466,99,0,260,67,1,466,99,0,260,67,1,19,577,0,16,315,1,461,104,0,256,70,1,460,104,1,255,70,2,0,599,0,0,326,1,0,598,1,0,326,2,100,491,0,74,273,1,462,103,0,256,69,1,416,82,99,231,68,60
2017-07-20T23:59:59Z,323,596,563,305,596,323,561,304,147,98,0,0,0,0,0,0,2,594,1,322,6,584,3,314,0,0,0,0,0,0,0,0,365,116,83,201,78,61,388,186,0,212,123,1,471,96,0,261,65,1,387,185,0,214,123,1,469,95,1,261,65,2,467,97,0,259,67,1,467,97,0,260,67,1,20,573,0,17,311,1,463,101,0,256,68,1,462,102,0,255,69,1,0,596,0,0,323,1,0,596,0,0,323,1,96,492,0,70,273,1,463,101,0,255,68,1,416,79,99,232,65,61
2017-07-21T23:59:59Z,324,599,566,306,599,324,564,304,149,100,0,0,0,0,0,0,0,599,0,324,6,588,3,316,0,0,0,0,0,0,0,0,364,118,85,201,79,63,390,187,0,215,125,1,471,98,0,263,66,1,388,186,0,215,124,1,472,95,0,263,65,1,469,96,0,262,65,1,468,98,0,262,67,1,21,574,1,17,313,2,464,102,0,257,68,1,463,102,0,257,68,1,0,599,0,0,324,1,0,599,0,0,324,1,97,494,0,71,272,1,466,99,0,258,67,1,415,80,102,232,66,62
2017-07-22T23:59:59Z,324,596,563,306,596,324,559,303,139,96,0,0,0,0,0,0,0,596,0,324,6,585,3,316,0,0,0,0,0,0,0,0,362,118,84,199,80,63,389,185,0,213,123,1,470,96,0,262,65,1,385,186,0,212,124,1,465,99,0,259,68,1,465,97,0,259,66,1,466,97,0,260,66,1,20,573,0,17,312,1,462,101,0,257,68,1,462,100,0,256,67,1,0,596,0,0,324,2,0,596,0,0,324,1,95,493,0,70,273,1,462,100,0,257,67,1,414,77,103,231,66,62
2017-07-23T23:59:59Z,323,595,561,305,595,323,558,302,147,97,0,0,0,0,0,0,0,594,0,323,6,583,3,315,0,0,0,0,0,0,0,0,363,115,84,199,78,62,386,187,0,212,123,1,470,95,0,261,65,1,380,190,0,209,126,1,465,98,0,257,68,1,465,96,0,257,66,1,465,97,0,258,67,1,20,572,0,17,311,1,463,99,0,255,69,1,462,99,0,255,68,1,0,595,0,0,323,1,0,595,0,0,323,1,99,488,0,71,271,1,463,98,0,256,68,1,414,77,102,231,65,62
2017-07-24T23:59:59Z,326,598,566,309,598,326,564,307,144,98,0,0,0,0,0,0,0,598,0,326,5,588,2,319,0,0,0,0,0,0,0,0,367,114,85,203,79,62,392,184,0,216,123,1,473,94,0,263,66,1,388,185,0,216,123,1,470,96,0,262,66,1,469,95,0,261,65,1,469,96,0,261,66,1,21,575,0,18,315,1,466,100,0,258,68,1,465,100,0,257,68,1,0,598,0,0,326,1,0,598,0,0,326,1,101,490,0,72,275,1,464,100,0,256,68,1,415,79,102,232,67,62
2017-07-25T23:59:59Z,325,599,565,307,599,325,562,305,140,97,0,0,0,0,0,0,0,599,0,325,5,590,2,319,0,0,0,0,0,0,0,0,366,117,84,201,81,62,392,185,0,215,124,1,472,95,0,262,66,1,386,187,0,213,126,1,471,95,0,262,66,1,470,95,0,261,66,1,471,95,0,262,66,1,20,576,0,17,314,1,467,99,0,259,68,1,466,100,0,258,69,1,0,599,0,0,325,1,0,599,0,0,325,1,99,493,0,72,273,1,465,99,0,258,68,1,415,79,103,232,68,62
2017-07-26T23:59:59Z,325,599,566,307,599,325,564,306,138,94,0,0,0,0,0,0,0,599,0,325,5,590,2,319,0,0,0,0,0,0,0,0,367,115,85,203,80,63,392,185,0,216,124,1,473,94,0,264,66,1,385,188,0,214,125,1,472,95,0,264,65,1,470,95,0,263,65,1,471,95,0,264,65,1,21,575,0,18,312,1,465,101,0,259,69,1,466,100,0,259,68,1,0,599,0,0,325,1,0,599,0,0,325,1,101,491,0,75,271,1,465,99,0,258,67,1,414,78,105,231,67,63
2017-07-27T23:59:59Z,324,592,559,306,592,324,557,304,142,96,0,0,0,0,0,0,0,592,0,324,5,582,3,317,0,0,0,0,0,0,0,0,363,116,81,202,79,61,386,184,0,215,124,2,467,94,0,262,66,1,386,181,0,216,121,2,466,94,0,262,66,1,463,95,0,260,67,1,464,95,0,261,66,1,22,567,0,18,312,2,458,101,0,256,69,1,459,100,0,256,68,1,0,592,0,0,324,1,0,592,0,0,324,1,101,484,0,75,272,1,460,98,0,257,68,2,409,77,104,230,66,63
2017-07-28T23:59:59Z,324,598,565,306,598,324,562,303,143,95,0,0,0,0,0,0,2,596,1,323,6,588,3,317,0,0,0,0,0,0,0,0,361,120,85,199,82,62,388,188,0,213,124,1,468,99,0,259,68,1,386,187,0,214,123,1,468,98,0,259,67,1,466,99,0,258,68,1,468,97,0,260,66,1,20,574,1,17,312,2,460,105,0,253,72,1,460,105,0,253,72,1,0,598,0,0,324,1,0,598,0,0,324,1,99,492,0,72,274,1,462,102,0,254,69,1,415,75,106,232,64,64
2017-07-29T23:59:59Z,324,591,558,306,591,324,556,304,141,95,0,0,0,0,0,0,2,589,1,323,6,580,3,316,0,0,0,0,0,0,0,0,358,119,82,199,82,59,384,185,0,212,122,1,462,98,0,258,68,1,381,185,0,212,122,1,459,98,2,257,68,3,461,97,0,257,67,1,461,97,0,258,67,1,21,567,0,18,311,1,456,102,0,254,70,1,457,101,0,254,69,1,0,591,0,0,324,1,0,591,0,0,324,1,96,488,0,69,274,1,456,100,1,253,69,1,409,79,101,229,67,61
2017-07-30T23:59:59Z,322,592,559,305,592,322,558,304,142,95,0,0,0,0,0,0,2,590,1,321,6,582,3,315,0,0,0,0,0,0,0,0,358,117,85,200,79,62,383,187,0,212,123,1,464,97,0,260,66,1,381,186,0,214,122,1,464,96,0,260,65,1,463,96,0,259,65,1,462,97,0,260,66,1,21,568,0,18,309,1,457,102,0,255,69,1,458,101,0,255,68,1,0,592,0,0,322,1,0,592,0,0,322,1,98,487,0,71,270,1,459,99,0,255,68,1,410,77,103,229,66,62
2017-07-31T23:59:59Z,323,589,555,305,589,323,554,304,141,98,0,0,0,0,0,0,2,587,1,322,6,579,3,316,0,0,0,0,0,0,0,0,358,116,84,199,80,62,381,186,0,212,123,2,463,95,0,260,66,2,379,185,0,211,122,2,461,96,0,259,67,1,461,95,0,258,66,1,461,95,0,259,66,2,22,565,0,18,311,1,457,99,0,256,68,2,456,100,0,255,69,2,0,589,0,0,323,2,0,589,0,0,323,2,101,481,0,72,272,2,456,99,0,255,68,1,406,79,102,228,68,61
2017-08-01T23:59:59Z,321,588,555,303,588,321,553,301,141,98,0,0,0,0,0,0,0,588,0,321,5,579,3,315,0,0,0,0,0,0,0,0,360,113,83,200,78,62,381,185,0,211,123,2,464,93,0,260,65,2,378,184,0,212,122,2,463,92,0,261,64,2,463,91,0,260,63,2,463,91,0,261,63,2,22,564,0,19,309,2,458,97,0,256,67,2,457,98,0,256,68,3,0,588,0,0,321,2,0,587,1,0,320,4,99,482,0,72,269,2,460,93,0,257,65,2,407,76,103,227,66,62
2017-08-02T23:59:59Z,320,582,549,302,582,320,547,300,135,93,0,0,0,0,0,0,0,582,0,320,6,572,3,313,0,0,0,0,0,0,0,0,359,109,83,200,75,61,381,180,0,213,120,1,462,90,0,260,63,1,377,180,0,212,120,1,460,90,0,259,63,1,459,90,0,258,63,1,459,90,0,259,63,1,22,558,0,19,307,1,454,96,0,255,67,1,454,96,0,255,67,1,0,582,0,0,320,1,0,582,0,0,320,1,97,478,0,70,269,1,456,92,0,256,65,1,402,76,102,227,66,62
2017-08-03T23:59:59Z,321,586,553,303,586,321,551,301,137,94,0,0,0,0,0,0,0,586,0,321,6,576,3,314,0,0,0,0,0,0,0,0,361,111,83,201,76,60,383,182,0,212,120,1,465,91,0,261,63,1,381,180,0,214,118,1,464,90,0,262,62,1,463,90,0,260,62,1,461,92,0,260,64,1,21,563,0,18,309,1,458,96,0,256,68,1,459,95,0,256,67,1,0,586,0,0,321,1,0,586,0,0,321,1,99,480,0,72,270,1,459,93,0,257,65,1,406,76,102,227,66,61
2017-08-04T23:59:59Z,321,587,554,304,587,321,551,302,132,89,0,0,0,0,0,0,0,587,0,321,6,577,3,314,0,0,0,0,0,0,0,0,362,112,83,203,76,60,383,183,0,213,121,1,464,94,0,261,65,1,382,180,0,214,118,1,463,93,0,261,64,1,463,92,0,260,63,1,462,93,0,260,64,1,21,564,0,18,309,1,457,99,0,256,68,1,458,98,0,256,67,1,0,587,0,0,321,1,0,586,1,0,321,2,96,485,0,69,272,1,456,98,0,255,67,1,410,73,102,230,63,62
2017-08-05T23:59:59Z,321,587,555,303,587,321,554,302,136,91,0,0,0,0,0,0,0,587,0,321,6,577,3,314,0,0,0,0,0,0,0,0,364,111,82,205,75,60,385,181,0,216,119,1,466,92,0,263,63,1,385,177,0,218,117,1,468,88,0,264,61,1,466,89,0,263,62,1,465,90,0,263,63,1,24,561,0,20,309,1,461,95,0,259,66,1,461,95,0,259,66,1,0,587,0,0,321,1,0,587,0,0,321,1,101,480,0,73,268,1,458,95,1,258,64,2,407,74,104,229,64,62
2017-08-06T23:59:59Z,322,588,555,304,588,322,552,301,138,94,0,0,0,0,0,0,2,586,1,321,6,578,3,315,0,0,0,0,0,0,0,0,366,110,82,205,76,60,389,178,0,218,118,1,466,93,0,263,64,1,383,180,0,215,118,1,466,91,0,263,62,1,464,92,0,262,63,1,464,92,0,263,63,1,22,564,0,18,310,1,460,97,0,259,68,1,459,98,0,257,67,1,0,588,0,0,322,1,0,588,0,0,322,1,101,481,0,72,270,1,459,96,0,258,65,1,407,74,105,230,64,62
2017-08-07T23:59:59Z,319,583,551,302,583,319,548,300,132,90,0,0,0,0,0,0,2,581,1,318,6,573,3,312,0,0,0,0,0,0,0,0,359,114,80,201,77,58,383,179,0,213,117,1,461,93,0,259,63,1,381,177,0,214,115,1,462,90,0,261,60,1,459,92,0,259,62,1,458,93,0,259,63,1,20,561,0,17,308,1,453,99,0,254,67,1,453,99,0,254,67,1,0,583,0,0,319,1,0,583,0,0,319,1,97,480,0,71,269,1,455,95,0,255,63,1,406,75,100,227,65,60
2017-08-08T23:59:59Z,318,581,549,300,581,318,547,298,130,90,0,0,0,0,0,0,0,581,0,318,5,572,2,312,0,0,0,0,0,0,0,0,363,108,80,202,73,58,386,174,0,214,115,1,462,90,0,259,62,1,382,174,0,213,115,1,462,88,0,259,60,1,461,88,0,258,60,1,460,89,0,259,61,1,20,559,0,17,307,1,456,94,1,254,64,2,455,95,0,254,65,1,0,581,0,0,318,1,0,581,0,0,318,1,95,480,0,68,270,1,456,92,0,254,62,1,404,74,101,227,64,61
2017-08-09T23:59:59Z,319,584,553,302,584,319,551,301,135,91,0,0,0,0,0,0,1,583,1,318,6,573,3,311,0,0,0,0,0,0,0,0,365,110,77,204,76,57,385,178,0,214,120,1,464,89,0,261,62,1,383,177,0,215,117,1,461,90,0,260,61,1,459,91,0,259,62,1,461,91,0,260,61,1,21,561,0,18,307,1,456,96,0,256,67,1,456,95,0,255,66,1,0,584,0,1,319,1,1,583,0,1,318,1,93,484,0,68,269,1,454,95,1,253,64,2,404,76,102,228,65,63
2017-08-10T23:59:59Z,318,580,549,302,579,317,548,301,141,95,0,0,0,0,0,0,0,580,0,318,6,570,3,311,0,0,0,0,0,0,0,0,357,110,82,200,74,59,380,178,1,212,117,2,460,90,0,258,61,1,378,178,0,212,117,1,459,89,0,258,60,1,457,89,0,257,60,1,458,90,0,258,61,1,21,557,0,17,307,1,454,95,0,254,64,1,451,97,0,252,66,1,0,580,0,0,318,1,0,580,0,0,318,1,98,475,0,69,267,1,454,93,0,253,62,1,397,75,106,224,64,64
2017-08-11T23:59:59Z,321,583,552,304,582,320,551,303,136,91,0,0,0,0,0,0,1,582,1,320,6,573,3,314,0,0,0,0,0,0,0,0,358,112,82,202,75,58,381,181,0,212,119,1,460,93,0,260,63,1,377,182,0,210,120,1,459,92,0,259,62,1,457,93,0,258,63,1,459,92,0,259,62,1,20,561,0,17,310,1,455,98,0,255,66,1,453,98,1,253,66,2,0,583,0,0,321,1,0,583,0,0,321,1,97,479,0,70,269,1,454,96,0,254,64,1,400,75,106,226,65,64
2017-08-12T23:59:59Z,318,581,551,302,581,318,550,301,136,92,0,0,0,0,0,0,0,581,0,318,6,571,3,311,0,0,0,0,0,0,0,0,361,109,80,202,74,60,380,179,0,212,119,2,461,90,0,262,62,2,380,176,0,214,116,2,461,89,0,262,61,2,460,89,0,261,61,2,461,89,0,262,61,2,24,555,1,19,305,3,455,96,0,257,64,2,453,97,0,256,65,2,0,581,0,1,318,2,0,581,0,0,318,2,97,478,0,71,267,2,453,95,0,256,63,1,399,74,106,225,64,64
2017-08-13T23:59:59Z,321,593,558,306,593,321,556,304,143,95,0,0,0,0,0,0,0,592,0,321,5,584,2,315,0,0,0,0,0,0,0,0,363,116,83,201,75,61,385,187,0,212,122,1,468,95,0,262,63,1,385,184,0,213,119,1,467,94,0,262,62,1,466,94,0,261,62,1,468,93,0,262,61,1,21,571,0,16,310,1,461,101,0,257,67,1,461,100,0,256,66,1,0,593,0,0,321,1,0,593,0,0,321,1,98,486,3,72,267,3,463,96,0,258,64,1,408,77,106,228,66,64
2017-08-14T23:59:59Z,323,590,556,307,590,323,554,305,142,95,0,0,0,0,0,0,0,589,0,323,6,580,3,316,0,0,0,0,0,0,0,0,366,110,83,203,72,61,390,179,0,216,116,1,470,90,0,265,60,1,388,178,0,216,115,1,469,89,0,264,59,1,468,89,0,263,59,1,469,89,0,264,59,1,22,567,0,18,310,1,464,95,0,260,63,1,462,96,0,259,64,1,0,590,0,0,323,1,0,590,0,0,323,1,97,487,0,70,271,1,463,93,0,259,61,1,408,78,102,230,66,63